Wind_Speed
2 2 2 2 2 2 2 2 2 2 3 3 3 3 3 3 3 2 2 2 2 2 2 3 3 3 3 4 4 4 4 5 5 6 6 7 7 7 7 8 8 8 7 7 7 7 7 7 7
2 2 2 2 2 2 2 2 2 3 3 3 3 3 3 3 3 2 2 2 2 2 2 3 3 4 4 4 4 4 5 5 5 6 7 7 7 7 7 8 8 8 8 9 9 9 8 8 8
3 3 2 3 3 3 3 3 3 2 3 3 3 2 2 3 3 2 2 2 3 3 3 3 4 4 4 4 4 5 5 5 5 6 6 6 7 7 7 8 8 8 8 9 9 9 9 9 9
3 3 3 3 3 2 3 3 3 3 3 3 3 2 2 3 3 2 3 3 3 4 4 4 4 4 5 5 5 5 5 5 5 5 6 6 7 7 8 8 8 8 8 9 10 10 10 10 10
3 3 4 3 3 2 3 3 3 3 3 3 3 3 3 3 3 3 3 4 4 4 4 4 4 5 5 5 5 5 5 5 5 6 6 6 7 7 8 9 9 9 9 10 10 10 10 11 10
3 4 4 3 2 2 3 3 3 3 3 3 3 4 4 4 4 4 4 4 5 4 4 5 5 5 5 5 5 5 5 5 5 5 6 6 7 8 8 8 9 10 10 10 11 10 10 11 11
3 3 3 2 2 2 3 3 4 3 4 4 4 4 4 4 4 4 4 4 4 4 4 5 5 5 5 5 5 6 6 6 6 6 6 6 7 8 9 9 9 10 10 10 11 11 11 11 11
3 3 3 3 2 3 3 3 4 4 4 4 4 4 4 4 5 4 4 4 4 5 5 5 5 5 5 5 6 6 6 7 7 6 6 7 7 8 8 9 10 10 11 11 10 10 10 11 11
3 3 2 2 3 3 3 3 4 4 5 5 4 4 4 4 5 5 5 5 5 5 5 5 5 6 6 6 6 7 7 7 7 7 7 7 8 8 9 9 10 10 10 11 11 11 11 11 11
3 3 1 2 3 3 3 4 4 5 5 5 5 4 5 5 5 5 6 6 6 6 6 5 5 5 6 6 6 7 7 7 7 7 7 7 8 9 9 9 10 10 10 11 11 11 11 11 11
3 2 2 2 3 3 3 4 5 6 6 5 5 5 6 6 6 6 6 6 6 6 6 6 5 5 6 6 6 7 7 7 7 7 8 8 8 9 9 10 10 10 11 11 11 11 11 11 11
3 2 3 3 3 3 4 5 5 5 6 6 6 6 6 7 7 7 7 7 7 6 6 6 6 6 6 6 7 7 7 8 8 8 8 8 8 9 10 10 10 10 11 11 11 11 11 11 12
3 2 3 3 2 3 4 5 5 5 6 6 7 7 7 7 8 8 8 8 7 7 6 6 6 6 7 7 7 7 8 8 8 9 9 9 9 10 10 10 10 10 10 11 11 11 11 11 11
4 3 3 3 3 4 4 5 6 6 6 7 7 8 8 8 8 8 8 7 7 7 7 7 7 7 7 8 8 8 8 9 9 9 9 9 10 10 10 10 10 10 10 10 11 11 11 11 11
5 5 4 3 3 4 5 5 6 6 7 8 8 9 9 9 9 8 8 8 7 8 8 8 7 7 7 8 8 8 9 9 10 10 9 10 10 10 10 10 10 10 10 10 10 11 11 11 11
6 5 5 5 5 5 6 6 7 6 7 8 9 10 10 9 9 9 8 8 8 8 8 8 8 8 8 9 9 9 9 9 10 10 10 10 10 11 10 10 10 10 10 10 11 11 11 11 11
7 7 6 6 6 6 6 7 7 8 8 9 10 9 9 9 9 10 10 9 9 9 8 9 9 9 9 9 9 9 10 10 11 11 11 11 11 11 10 10 10 11 11 10 11 11 11 11 11
8 8 8 7 8 7 8 8 8 8 9 10 10 9 9 10 9 10 10 10 10 10 9 9 10 11 11 11 10 11 11 11 11 11 11 11 11 11 11 10 11 11 11 11 11 10 11 11 11
9 9 9 8 8 9 9 9 9 9 10 10 9 9 10 10 10 10 10 11 11 11 10 10 11 11 11 11 11 12 11 11 11 12 12 12 11 11 11 10 10 10 10 10 10 11 11 11 11
11 10 10 10 10 11 11 11 10 10 10 10 10 10 10 10 11 11 11 12 12 11 12 11 12 12 12 12 12 12 13 13 12 12 12 11 11 12 12 11 10 10 11 11 11 11 11 11 12
11 11 12 12 12 12 12 11 11 10 10 11 10 10 9 10 11 11 12 12 13 13 13 14 14 14 13 12 12 12 13 13 14 14 13 12 12 12 13 12 11 12 12 11 11 11 11 11 12
13 13 13 13 13 13 13 12 12 12 11 11 11 10 10 10 11 12 13 13 13 14 14 14 14 14 13 13 13 12 13 14 14 14 14 13 13 13 13 12 12 13 13 12 12 12 12 12 12
13 13 14 14 14 14 14 14 12 13 12 12 11 11 12 12 12 13 13 14 14 15 15 15 14 14 14 14 13 13 13 13 14 14 14 14 13 13 13 13 13 13 14 13 13 13 13 12 13
13 14 14 15 15 14 14 15 12 12 12 11 11 12 12 13 13 14 14 14 14 15 15 15 15 15 15 15 14 14 14 14 14 14 14 14 14 14 14 14 14 14 14 13 13 13 14 13 14
13 14 15 16 15 15 15 15 14 13 12 11 11 12 12 13 13 14 15 15 15 15 15 16 16 16 15 15 15 15 14 14 14 14 14 14 15 15 15 15 15 15 15 14 14 14 14 15 15
14 14 15 16 16 16 16 16 14 14 13 13 13 13 13 14 14 15 15 16 16 16 16 16 16 17 17 16 16 16 15 15 15 15 15 16 16 16 16 16 16 16 16 16 15 15 15 16 16
15 15 16 17 17 18 17 16 15 15 15 15 15 14 15 15 15 16 16 17 17 17 17 17 17 18 18 18 17 17 16 16 17 17 16 16 17 17 17 17 17 17 17 17 17 17 17 17 17
15 16 16 16 18 18 18 17 17 16 16 16 16 16 17 17 16 17 17 18 18 18 19 19 19 19 19 19 18 17 17 17 18 18 17 17 18 18 18 19 19 19 19 19 19 19 19 19 19
16 16 16 17 18 19 19 18 17 17 17 18 18 19 18 18 17 18 19 19 20 20 20 20 20 20 20 20 19 18 18 18 18 19 19 19 19 19 19 20 20 20 20 20 20 20 21 21 21
17 17 17 18 18 19 20 19 17 19 20 20 21 20 20 19 19 20 20 20 20 20 20 20 21 20 20 20 20 20 20 20 20 20 20 20 20 20 20 20 21 21 21 21 21 22 22 22 22
Wind_Direction
313 312 314 320 316 297 290 303 343 22 6 1 356 340 335 337 338 315 297 297 308 309 290 284 290 289 288 286 282 285 283 282 280 275 269 265 262 256 256 255 257 255 252 251 250 250 246 249 247
318 307 289 291 293 291 302 347 27 27 14 7 7 357 345 341 339 322 308 308 303 308 293 284 289 293 293 285 281 284 286 282 279 274 269 265 264 258 258 259 257 255 255 257 256 254 252 252 249
312 310 291 281 283 297 312 347 17 8 359 356 352 354 346 344 359 355 329 317 309 310 297 289 289 288 291 290 286 285 287 285 283 277 272 267 268 263 258 258 262 261 259 260 257 255 253 252 250
296 295 277 276 296 316 337 358 359 351 348 347 345 351 342 338 348 348 332 316 313 313 301 289 290 286 288 289 287 286 285 284 284 278 272 268 268 266 260 260 263 263 261 261 259 256 254 254 255
283 277 275 282 305 334 353 5 357 358 358 346 342 347 343 336 333 326 317 313 310 305 300 292 293 290 288 287 289 290 290 289 286 284 278 272 269 269 263 262 262 264 264 264 264 260 257 256 258
276 283 278 289 304 336 358 356 350 356 345 335 342 346 339 337 330 325 322 310 305 301 299 295 294 291 289 290 288 289 291 292 292 288 283 277 273 271 268 263 262 263 263 263 264 262 261 260 260
273 281 284 296 316 342 0 355 339 346 340 337 338 339 337 332 329 324 322 319 313 298 289 291 292 292 289 287 287 289 293 296 296 296 289 282 278 275 271 266 266 267 266 265 263 260 260 263 262
269 267 277 306 325 345 2 1 346 345 344 341 341 338 335 331 325 326 325 320 313 307 302 300 296 293 293 294 293 291 294 297 296 297 293 285 282 280 277 272 270 269 267 266 266 262 262 263 264
267 274 279 317 331 347 2 2 347 347 344 344 344 339 334 332 327 328 326 319 313 313 308 300 295 296 294 292 292 294 297 296 294 294 293 290 285 281 279 277 273 270 267 265 266 267 267 264 262
267 270 294 335 339 341 351 348 346 348 344 342 341 339 336 336 329 326 325 323 316 310 310 308 294 292 295 291 291 294 296 294 293 292 290 289 287 282 281 278 275 273 269 266 266 268 269 267 266
265 271 299 312 323 331 339 342 342 345 342 339 338 338 339 337 332 325 321 317 317 315 314 310 299 292 291 292 293 295 294 292 292 291 287 288 290 284 282 278 276 275 271 267 268 269 268 267 266
274 282 300 317 322 329 333 335 334 337 337 335 335 334 331 334 332 324 317 315 314 312 310 306 299 295 289 293 296 296 296 292 289 289 287 288 291 289 286 282 278 276 273 270 271 271 270 270 268
287 288 302 321 321 314 321 324 324 328 331 333 334 333 337 336 334 331 328 323 318 315 313 308 299 300 298 296 296 297 297 295 292 290 288 287 290 290 288 283 278 277 277 272 271 270 270 271 272
294 286 284 291 303 310 320 321 317 323 327 331 329 329 333 333 331 330 329 325 319 315 314 308 298 297 300 300 298 298 298 297 295 294 292 290 290 289 287 284 280 276 274 272 272 270 271 272 271
280 279 281 281 295 309 312 311 312 316 318 321 321 322 325 327 324 325 325 322 319 316 311 305 297 292 292 296 300 301 303 302 299 297 296 293 291 289 287 286 286 281 276 277 275 272 273 271 271
278 277 270 277 290 294 310 309 307 310 313 314 313 314 319 321 319 318 319 317 316 315 313 307 300 293 291 292 298 303 304 303 300 299 297 295 292 290 289 286 284 281 280 279 276 274 273 270 272
273 276 275 275 280 288 302 307 306 307 308 308 311 315 316 318 320 317 314 313 313 312 309 307 303 302 297 294 297 302 301 298 295 297 296 295 293 291 290 287 285 282 281 279 277 275 271 267 269
274 272 271 276 283 290 298 300 300 303 304 305 310 313 315 317 321 318 313 310 310 311 309 305 302 300 298 296 297 298 298 296 294 295 295 295 294 292 291 288 287 284 282 282 278 274 270 267 266
267 268 270 274 280 288 295 296 295 301 302 304 308 308 308 313 316 316 311 310 310 310 310 305 302 300 297 294 292 292 294 293 292 293 293 293 292 291 291 290 290 289 288 286 280 275 271 268 267
265 269 272 273 278 283 288 290 291 296 300 300 301 301 303 306 310 310 306 303 305 306 306 303 302 301 296 292 292 291 292 291 290 288 290 290 288 285 285 285 287 289 291 288 280 277 272 269 268
267 268 272 275 280 282 286 287 288 291 294 295 295 296 301 304 307 306 304 302 299 299 303 303 299 300 296 293 292 291 290 292 289 288 291 291 288 286 284 283 284 285 286 285 280 276 274 270 267
266 268 271 275 275 279 285 288 290 292 294 291 291 295 300 303 305 306 304 302 299 299 300 300 297 297 293 290 290 290 289 289 290 290 291 291 288 288 286 285 286 285 283 282 278 274 272 269 267
267 266 269 271 274 279 282 287 291 291 296 291 290 294 298 302 303 303 303 301 299 298 299 299 295 292 290 289 289 288 287 287 288 289 288 287 286 286 285 284 284 284 283 281 278 274 270 269 267
268 267 268 271 275 278 281 286 289 294 296 294 290 293 297 300 301 303 302 300 298 297 298 298 295 290 286 285 285 288 288 286 288 289 286 285 285 284 282 281 282 284 283 282 280 274 270 267 266
268 268 270 272 276 279 280 281 287 289 289 292 295 296 296 298 301 302 299 299 298 297 298 296 295 290 285 284 283 286 285 284 287 287 284 284 285 284 281 280 280 281 282 281 278 276 272 268 266
267 269 272 276 279 281 279 280 284 287 290 294 295 293 293 295 296 296 295 295 296 297 298 295 293 289 283 282 283 282 280 281 281 283 282 281 281 282 282 282 280 280 279 278 276 274 271 270 268
267 269 272 275 278 278 279 281 283 287 288 291 292 289 289 290 289 290 290 291 292 294 296 296 294 291 286 284 285 281 279 278 278 280 280 280 280 279 278 279 280 279 278 276 274 273 271 269 270
268 269 272 273 276 277 279 280 283 286 287 289 290 289 289 288 288 290 290 289 288 291 294 295 294 291 288 284 285 283 281 279 279 280 281 280 281 279 277 277 278 278 277 276 276 273 270 269 270
267 268 269 271 273 276 277 279 282 284 285 287 289 290 289 289 290 291 289 289 289 289 291 294 293 292 288 285 285 283 281 279 280 279 280 280 281 279 279 278 277 277 277 276 276 274 270 269 269
270 268 268 270 271 274 277 277 280 281 283 285 287 288 288 287 287 288 287 285 287 289 291 292 291 290 288 286 284 283 281 280 280 280 281 280 279 278 279 279 278 277 276 277 276 274 271 269 268
Height
5875 5875 5875 5876 5876 5875 5874 5874 5872 5872 5871 5871 5870 5869 5869 5869 5869 5871 5868 5866 5866 5865 5865 5864 5864 5864 5864 5863 5863 5863 5863 5863 5863 5863 5862 5862 5863 5863 5863 5863 5863 5863 5863 5863 5863 5863 5864 5864 5864
5875 5874 5875 5875 5874 5874 5873 5872 5871 5871 5871 5870 5869 5869 5868 5868 5867 5867 5866 5865 5864 5864 5864 5864 5863 5863 5863 5862 5862 5862 5862 5862 5862 5861 5861 5861 5861 5861 5861 5861 5862 5862 5862 5862 5862 5862 5862 5863 5863
5874 5874 5875 5874 5874 5873 5873 5872 5871 5870 5870 5869 5869 5868 5868 5867 5866 5865 5865 5864 5864 5863 5863 5863 5862 5862 5862 5861 5861 5861 5861 5861 5860 5860 5860 5860 5860 5860 5860 5860 5860 5860 5860 5860 5860 5860 5861 5861 5861
5875 5875 5875 5874 5873 5873 5872 5871 5870 5870 5869 5869 5868 5867 5867 5866 5866 5865 5864 5863 5862 5862 5862 5862 5861 5861 5861 5860 5860 5860 5860 5859 5859 5859 5858 5858 5858 5858 5858 5858 5858 5859 5858 5858 5858 5859 5859 5859 5859
5874 5874 5873 5872 5872 5872 5871 5870 5870 5869 5869 5868 5867 5867 5866 5866 5865 5864 5863 5863 5862 5861 5861 5861 5860 5860 5859 5859 5859 5859 5858 5858 5858 5857 5857 5857 5857 5857 5857 5857 5857 5857 5857 5856 5856 5857 5857 5857 5857
5874 5873 5873 5872 5871 5871 5870 5870 5869 5868 5868 5867 5867 5866 5865 5864 5863 5863 5862 5862 5861 5860 5860 5859 5859 5858 5858 5858 5857 5857 5857 5857 5856 5856 5856 5855 5855 5855 5855 5855 5855 5855 5855 5854 5854 5855 5855 5855 5855
5873 5872 5871 5871 5871 5870 5870 5869 5868 5868 5867 5867 5866 5865 5864 5863 5862 5862 5861 5860 5860 5859 5859 5858 5857 5857 5857 5856 5856 5856 5856 5855 5855 5854 5854 5854 5853 5853 5853 5853 5853 5853 5852 5852 5852 5852 5852 5852 5853
5872 5872 5871 5871 5870 5870 5869 5868 5867 5867 5866 5866 5865 5864 5863 5862 5861 5861 5860 5859 5859 5858 5857 5857 5856 5856 5855 5855 5855 5854 5854 5854 5853 5853 5852 5852 5851 5851 5851 5851 5850 5850 5850 5850 5850 5850 5850 5850 5850
5871 5872 5870 5870 5869 5869 5868 5868 5867 5866 5866 5865 5864 5863 5862 5861 5860 5860 5859 5858 5858 5857 5856 5855 5855 5854 5854 5853 5853 5853 5852 5852 5851 5851 5850 5850 5849 5849 5849 5848 5848 5848 5848 5847 5847 5847 5847 5847 5847
5870 5870 5870 5869 5869 5868 5867 5867 5866 5866 5865 5864 5863 5862 5861 5860 5859 5859 5858 5857 5856 5855 5855 5854 5853 5853 5852 5852 5851 5851 5851 5850 5850 5849 5848 5848 5847 5847 5846 5846 5845 5845 5845 5845 5845 5844 5844 5844 5844
5870 5869 5869 5868 5867 5867 5867 5866 5865 5864 5864 5863 5862 5861 5860 5859 5858 5857 5857 5856 5855 5854 5853 5853 5852 5851 5851 5850 5850 5849 5849 5848 5847 5847 5846 5846 5845 5844 5844 5844 5843 5843 5842 5842 5842 5842 5842 5841 5841
5869 5868 5868 5867 5867 5866 5866 5865 5865 5864 5863 5862 5861 5860 5859 5858 5857 5856 5855 5854 5853 5852 5852 5851 5850 5850 5849 5848 5848 5847 5847 5846 5845 5845 5844 5843 5843 5842 5841 5841 5841 5840 5840 5839 5839 5839 5839 5838 5838
5868 5867 5867 5866 5866 5865 5865 5864 5864 5863 5862 5861 5860 5859 5858 5857 5856 5855 5853 5852 5851 5850 5850 5849 5849 5848 5847 5846 5846 5845 5844 5844 5843 5842 5842 5841 5840 5840 5839 5838 5838 5837 5837 5836 5836 5836 5836 5835 5835
5866 5866 5866 5865 5864 5864 5864 5863 5863 5862 5861 5860 5859 5857 5856 5855 5854 5853 5851 5850 5849 5848 5848 5847 5846 5846 5845 5844 5843 5842 5842 5841 5841 5840 5839 5838 5838 5837 5836 5836 5835 5835 5834 5833 5833 5833 5832 5832 5832
5865 5865 5865 5864 5864 5863 5863 5862 5861 5860 5859 5858 5857 5856 5855 5853 5852 5851 5850 5848 5847 5846 5845 5845 5844 5844 5843 5842 5840 5840 5839 5838 5838 5837 5836 5836 5835 5834 5833 5833 5832 5832 5831 5831 5830 5830 5829 5829 5829
5864 5864 5863 5863 5862 5861 5862 5861 5860 5858 5857 5856 5855 5854 5853 5852 5850 5849 5847 5846 5845 5844 5843 5842 5841 5841 5840 5839 5838 5837 5837 5836 5835 5835 5834 5833 5832 5831 5831 5830 5829 5829 5828 5828 5827 5827 5826 5826 5826
5862 5862 5861 5861 5860 5860 5860 5859 5858 5856 5855 5854 5853 5852 5851 5850 5848 5847 5845 5844 5843 5842 5841 5840 5839 5838 5837 5837 5836 5835 5834 5833 5833 5832 5831 5830 5829 5828 5828 5827 5827 5826 5825 5825 5824 5824 5823 5823 5823
5860 5860 5859 5859 5858 5858 5857 5856 5855 5854 5854 5852 5851 5850 5849 5848 5846 5845 5843 5842 5840 5839 5838 5837 5836 5835 5834 5833 5833 5832 5831 5830 5829 5828 5828 5827 5826 5826 5825 5824 5824 5823 5822 5822 5821 5821 5820 5820 5820
5857 5857 5857 5857 5856 5855 5854 5854 5853 5852 5851 5850 5849 5848 5846 5845 5844 5842 5840 5839 5838 5837 5836 5835 5833 5832 5831 5831 5830 5829 5828 5827 5827 5826 5824 5824 5823 5823 5822 5821 5821 5820 5819 5819 5818 5818 5817 5817 5817
5854 5854 5854 5854 5853 5853 5852 5851 5850 5849 5848 5847 5846 5845 5844 5843 5841 5840 5838 5837 5835 5834 5833 5831 5830 5830 5829 5827 5826 5826 5825 5824 5823 5822 5821 5820 5820 5819 5819 5818 5818 5817 5816 5815 5815 5814 5814 5814 5814
5851 5851 5851 5851 5850 5849 5849 5848 5847 5846 5845 5844 5843 5842 5841 5840 5838 5837 5836 5834 5833 5831 5830 5828 5827 5826 5825 5824 5823 5822 5821 5821 5820 5818 5817 5817 5816 5816 5815 5815 5814 5813 5813 5812 5811 5811 5811 5811 5811
5848 5848 5847 5847 5847 5846 5846 5845 5844 5842 5841 5840 5839 5838 5837 5836 5835 5834 5832 5831 5829 5828 5826 5825 5823 5822 5821 5820 5819 5818 5818 5817 5816 5815 5814 5813 5813 5812 5812 5811 5810 5810 5809 5808 5808 5807 5807 5807 5807
5845 5844 5844 5843 5842 5842 5841 5840 5841 5839 5838 5837 5836 5835 5833 5832 5831 5830 5829 5827 5826 5824 5823 5821 5819 5818 5817 5816 5815 5815 5814 5813 5813 5811 5811 5810 5809 5809 5808 5807 5807 5806 5805 5804 5804 5803 5803 5803 5803
5841 5841 5840 5839 5839 5839 5838 5836 5837 5836 5835 5833 5832 5831 5829 5829 5827 5826 5825 5823 5822 5820 5819 5817 5815 5814 5813 5813 5812 5811 5810 5809 5809 5807 5807 5806 5805 5805 5804 5804 5803 5802 5801 5801 5800 5799 5799 5799 5799
5837 5837 5837 5836 5835 5835 5834 5832 5833 5832 5831 5829 5828 5827 5826 5825 5824 5822 5821 5819 5818 5816 5815 5813 5811 5810 5809 5808 5808 5806 5805 5805 5804 5803 5802 5802 5801 5801 5800 5800 5799 5798 5797 5797 5796 5795 5795 5795 5795
5833 5833 5833 5832 5831 5830 5829 5828 5828 5827 5826 5825 5824 5823 5822 5821 5820 5818 5817 5815 5814 5812 5811 5809 5807 5806 5805 5804 5803 5802 5801 5800 5800 5799 5798 5798 5797 5796 5795 5795 5794 5794 5793 5792 5792 5791 5791 5790 5790
5828 5828 5828 5828 5826 5826 5825 5824 5824 5822 5821 5821 5820 5819 5818 5817 5816 5814 5813 5811 5810 5808 5807 5805 5803 5802 5800 5799 5798 5797 5796 5795 5795 5794 5794 5793 5792 5791 5790 5790 5790 5789 5788 5788 5787 5786 5786 5785 5785
5824 5824 5823 5823 5822 5820 5820 5820 5819 5818 5817 5816 5815 5814 5813 5812 5811 5810 5808 5807 5805 5804 5802 5800 5799 5797 5795 5794 5793 5792 5791 5790 5790 5789 5788 5788 5787 5785 5785 5784 5784 5783 5783 5782 5782 5781 5780 5780 5780
5820 5819 5818 5818 5817 5816 5815 5817 5815 5814 5812 5811 5810 5809 5808 5807 5806 5805 5803 5802 5800 5799 5797 5796 5794 5792 5791 5789 5788 5787 5786 5785 5784 5783 5783 5782 5781 5780 5779 5778 5778 5777 5777 5776 5776 5775 5774 5774 5774
5814 5814 5814 5813 5812 5811 5810 5813 5810 5809 5808 5806 5805 5804 5803 5802 5801 5799 5798 5797 5796 5794 5792 5791 5788 5787 5785 5784 5783 5781 5780 5779 5778 5777 5777 5776 5775 5774 5773 5772 5771 5771 5770 5770 5769 5768 5768 5767 5767